Terminal Aerodrome Forecast
Issued by NWS

Home | Current Version | Previous Version | Text Only | Print | Product List | Glossary On
Versions: 1 2 3 4 5 6 7 8 9 10 11 12 13 14 15 16 17 18 19 20 21 22 23 24
000
FTUS43 KILX 301150
TAFBMI
TAF
KBMI 301150Z 3012/3112 11003KT 4SM -RA BR VCTS BKN002 OVC010CB
     FM301400 12010KT 4SM -RA BR SCT006 OVC010
     FM301700 08007KT P6SM VCSH SCT006 OVC012
     FM302100 03014G22KT 2SM -RA BR VCTS OVC006CB
     FM310200 02015G28KT P6SM VCSH OVC004
     FM310700 01015G25KT P6SM OVC004=

USA.gov is the U.S. government's official web portal to all federal, state and local government web resources and services.